Orbital Elements at Epoch 2459200.5 (2020-Dec-17.0) TDB
Reference: JPL 33 (heliocentric ecliptic J2000)
Element | Value | Uncertainty (1-sigma) | Units |
e | .1457180030368941 | 3.1131e-08 | |
a | 3.130473515386994 | 1.51e-08 | au |
q | 2.674307166164915 | 9.9699e-08 | au |
i | 2.652160072964849 | 3.5093e-06 | deg |
node | 94.18387283994512 | 0.0001013 | deg |
peri | 18.73252405822938 | 0.00010282 | deg |
M | 12.13374216401653 | 1.6252e-05 | deg |
tp | 2459132.312347518093 (2020-Oct-09.81234752) | 9.1334e-05 | TDB |
period | 2023.081961168079 5.54 | 1.4637e-05 4.007e-08 | d yr |
n | .1779463249191074 | 1.2875e-09 | deg/d |
Q | 3.586639864609072 | 1.73e-08 | au |
|
| | Orbit Determination Parameters
Additional Information
|